Location: Beddau
(51.5575°N, 3.3561°W)
Time: 16:45:33
(UTC+00:00)

FALCON 9 DEB - Pass Details

Date: 03 March 2021
Orbit: 367 x 387 km, 53.0° (Epoch: 12 April)

Event Time Altitude Azimuth Distance (km) Brightness Sun altitude
Rises 19:28:21 0° 279° (W) 2,291 8.8 -14.9°
Reaches altitude 10° 19:30:26 10° 282° (WNW) 1,433 7.2 -15.2°
Maximum altitude 19:33:38 68° 6° (N) 427 3.0 -15.7°
Enters shadow 19:34:36 40° 76° (ENE) 594 3.3 -15.8°
